Dewpoint
65 65 65 66 69 68 66 66 68 69 70 70 72 71 71 71 71 71 70 70 70 70 70 70 70 69 70 69 70 70 68 64 63 64 65 68 68 67 69 70 71 70 69
65 65 65 64 66 69 68 66 66 67 68 69 70 71 71 71 71 71 71 71 70 70 70 70 70 70 70 70 69 69 68 68 66 65 66 68 68 70 70 70 71 71 72
66 65 65 64 64 65 68 69 66 66 67 70 71 72 71 71 71 71 71 71 71 71 70 70 70 70 70 70 70 70 70 70 69 68 69 69 70 70 70 70 70 70 71
65 66 66 65 64 64 65 67 68 65 66 67 72 72 72 71 71 71 71 71 71 71 71 71 71 71 70 69 70 70 70 70 69 68 68 68 69 70 70 69 70 70 69
64 66 66 67 66 64 64 65 67 68 66 65 68 72 72 72 71 71 72 71 71 71 71 71 71 71 70 70 70 70 70 69 69 69 68 68 69 69 69 69 68 69 69
65 65 67 67 67 66 65 64 65 66 67 66 66 67 71 71 67 67 70 71 71 71 70 70 71 70 70 67 67 68 70 70 69 69 69 69 69 69 68 68 67 67 67
66 67 67 68 67 68 67 65 64 64 65 66 67 68 68 70 65 65 67 70 70 71 71 70 71 71 70 71 68 66 66 66 68 71 70 70 69 69 68 67 68 68 68
68 67 67 67 67 68 69 67 65 64 65 64 64 66 69 69 65 63 65 70 70 70 71 71 71 71 71 71 71 71 71 71 69 68 70 71 71 71 70 70 69 69 70
66 68 68 68 69 68 68 68 68 66 65 65 63 63 66 67 63 62 64 69 69 70 70 71 72 72 68 64 71 70 70 71 68 63 64 64 63 62 65 69 69 68 69
66 64 65 68 69 70 69 68 68 68 67 67 66 64 63 66 61 62 63 70 70 70 70 70 65 69 64 62 69 70 70 70 70 70 69 66 63 66 62 68 70 70 69
66 65 65 64 66 70 71 71 70 69 69 69 69 67 65 68 68 59 59 70 69 69 69 69 70 62 60 59 60 71 70 69 68 69 69 69 70 71 72 69 70 71 70
69 65 64 64 67 68 69 70 71 70 69 68 68 69 69 67 62 61 59 61 66 69 69 69 68 59 58 58 59 61 60 61 68 68 68 69 69 70 71 72 73 71 72
64 65 67 69 65 67 68 68 69 70 69 68 68 68 69 69 69 60 58 58 60 69 71 67 62 58 55 57 57 60 59 64 66 65 66 67 69 70 70 71 73 74 74
61 63 64 65 68 71 71 70 68 69 69 69 68 68 68 69 70 70 67 63 60 63 66 68 66 63 61 63 63 61 63 64 65 66 67 68 68 69 70 71 72 72 71
58 61 62 64 68 71 71 70 69 69 68 68 68 69 69 68 69 66 67 71 70 67 68 70 71 68 68 68 67 67 65 64 65 66 66 67 68 69 70 71 71 71 70
56 58 60 62 64 68 71 70 53 56 55 55 56 65 69 62 60 55 54 54 56 55 66 70 70 70 70 70 70 69 68 65 66 67 67 68 68 70 70 69 70 70 69
53 56 57 59 61 65 69 71 69 60 49 50 49 52 53 62 51 52 51 52 52 54 71 70 70 70 70 70 70 70 70 70 69 69 69 70 70 70 68 68 68 65 63
53 53 55 57 59 63 67 71 71 69 68 68 55 53 51 50 49 50 50 53 59 56 71 72 71 70 70 70 70 70 71 71 71 70 70 70 70 69 66 66 66 63 62
52 54 57 58 60 62 66 69 71 71 70 70 65 54 51 48 47 46 49 70 70 68 68 71 71 71 71 71 71 71 71 71 71 71 70 69 68 66 64 63 63 58 58
52 54 55 56 57 61 64 68 71 72 71 71 69 69 58 58 64 64 60 65 70 70 70 69 70 70 70 71 69 69 68 67 68 67 64 64 64 63 62 61 61 60 60
52 54 55 56 57 62 64 68 71 71 70 70 70 66 55 66 69 70 67 66 67 67 68 69 67 66 66 66 65 65 66 65 64 63 62 62 62 62 62 61 61 62 61
53 53 55 56 59 64 65 68 70 69 69 68 64 60 50 66 66 64 63 63 63 62 64 62 59 60 60 62 64 63 63 62 61 61 61 60 61 61 61 60 60 59 59
52 55 56 58 60 59 64 66 67 68 66 65 64 63 63 62 60 59 57 55 55 55 55 55 53 50 51 50 52 55 57 56 57 58 56 55 57 58 59 58 57 55 55
49 51 54 52 52 53 55 57 59 56 63 64 64 62 59 56 53 50 50 49 47 47 47 44 44 44 44 44 43 44 45 45 45 47 50 50 51 51 54 53 53 52 53
45 46 46 47 46 46 47 48 48 48 50 54 55 53 50 47 45 44 43 42 39 43 40 39 37 37 35 35 33 33 33 34 39 40 44 43 40 37 36 34 37 42 42
42 41 41 43 44 45 43 43 44 45 46 47 48 48 46 44 42 41 41 40 39 37 37 37 36 37 36 35 34 33 31 33 36 34 35 37 39 37 34 35 33 32 32
Lifted_Index
-1 -1 -1 -1 -1 -1 -0 -0 -1 -2 -3 -3 -3 -3 -3 -3 -3 -3 -3 -3 -3 -3 -4 -4 -4 -4 -4 -4 -4 -4 -4 -4 -4 -4 -4 -5 -5 -5 -5 -6 -6 -6 -6
-1 -1 -1 -0 -0 -1 -0 -0 -1 -1 -1 -2 -2 -3 -3 -3 -3 -3 -3 -3 -3 -3 -4 -4 -4 -4 -4 -5 -4 -4 -4 -4 -4 -4 -4 -5 -5 -5 -5 -6 -6 -6 -6
-1 -1 -1 -1 -0 -0 -1 -1 -0 -0 -0 -1 -2 -3 -3 -3 -3 -3 -3 -3 -3 -4 -4 -4 -4 -4 -4 -5 -4 -4 -4 -4 -4 -5 -5 -5 -5 -5 -6 -6 -6 -6 -5
-1 -1 -1 -1 -1 -1 -1 -1 -0 -0 0 -0 -1 -2 -3 -3 -3 -3 -3 -3 -3 -4 -4 -4 -4 -4 -4 -4 -4 -4 -4 -4 -5 -5 -5 -5 -5 -5 -6 -6 -5 -5 -5
-1 -1 -2 -2 -1 -1 -1 -1 -0 -0 -0 -0 -1 -2 -3 -3 -3 -3 -3 -3 -3 -4 -4 -4 -4 -4 -4 -4 -4 -4 -4 -4 -4 -5 -5 -5 -5 -5 -5 -5 -5 -5 -6
-2 -2 -2 -2 -2 -1 -1 -1 -1 -1 -0 -0 -0 -1 -2 -3 -3 -4 -4 -4 -3 -3 -3 -3 -4 -4 -4 -4 -4 -4 -5 -5 -5 -5 -5 -5 -5 -5 -5 -5 -5 -6 -6
-2 -2 -2 -2 -2 -2 -2 -1 -1 -1 -1 -1 -0 -1 -1 -2 -3 -3 -3 -3 -3 -3 -3 -3 -3 -4 -4 -5 -5 -5 -5 -5 -5 -5 -5 -5 -5 -5 -5 -5 -6 -6 -6
-3 -3 -3 -3 -3 -2 -2 -2 -2 -2 -1 -1 -1 -1 -1 -2 -2 -2 -3 -3 -3 -3 -3 -3 -3 -3 -4 -4 -5 -5 -5 -5 -5 -5 -5 -5 -5 -5 -5 -6 -6 -6 -6
-2 -2 -3 -3 -3 -3 -3 -3 -3 -2 -2 -2 -2 -2 -2 -2 -2 -2 -2 -3 -3 -3 -3 -3 -3 -3 -4 -4 -4 -4 -4 -4 -4 -4 -4 -5 -5 -5 -5 -5 -6 -6 -7
-2 -2 -3 -4 -4 -4 -4 -3 -3 -3 -3 -3 -3 -2 -2 -2 -2 -2 -2 -3 -3 -3 -3 -3 -3 -3 -3 -3 -3 -3 -4 -4 -4 -4 -4 -4 -4 -5 -5 -5 -6 -7 -7
-2 -2 -2 -3 -4 -5 -5 -4 -4 -4 -3 -3 -3 -3 -3 -3 -2 -2 -2 -3 -3 -3 -3 -3 -3 -3 -3 -3 -3 -3 -3 -4 -3 -3 -4 -4 -4 -4 -5 -5 -6 -7 -7
-2 -2 -2 -3 -4 -4 -4 -4 -4 -4 -4 -4 -3 -3 -3 -3 -3 -3 -3 -3 -3 -3 -3 -3 -3 -3 -3 -3 -3 -3 -3 -3 -3 -3 -4 -4 -4 -4 -4 -5 -6 -7 -7
-0 -1 -1 -2 -3 -4 -5 -5 -5 -4 -4 -4 -4 -4 -3 -3 -3 -4 -4 -4 -4 -4 -4 -4 -4 -4 -3 -3 -3 -3 -3 -3 -3 -3 -3 -3 -3 -4 -4 -5 -6 -7 -8
2 1 0 -2 -3 -5 -6 -6 -5 -5 -5 -5 -5 -4 -4 -4 -4 -4 -4 -4 -4 -4 -4 -4 -4 -4 -4 -4 -4 -4 -4 -4 -3 -3 -4 -4 -4 -4 -4 -6 -7 -7 -8
3 2 1 -0 -3 -5 -6 -7 -6 -6 -6 -6 -5 -5 -5 -5 -5 -5 -5 -5 -5 -4 -4 -4 -4 -4 -4 -4 -5 -5 -4 -4 -4 -4 -4 -4 -4 -4 -5 -6 -7 -7 -7
2 2 2 1 -1 -3 -5 -7 -7 -7 -7 -6 -6 -6 -6 -5 -5 -5 -6 -6 -6 -5 -5 -4 -4 -4 -4 -4 -5 -5 -5 -5 -5 -5 -5 -5 -5 -5 -6 -6 -7 -7 -7
2 3 2 2 1 -1 -4 -6 -7 -7 -7 -7 -7 -6 -6 -6 -6 -6 -6 -7 -7 -6 -6 -5 -5 -5 -5 -5 -5 -5 -5 -6 -6 -6 -6 -6 -6 -6 -6 -6 -6 -6 -6
3 3 3 3 2 0 -2 -5 -7 -7 -7 -7 -7 -7 -7 -7 -7 -7 -7 -7 -8 -8 -7 -7 -6 -6 -6 -6 -6 -6 -6 -6 -6 -6 -6 -6 -6 -6 -6 -6 -6 -6 -6
4 4 3 3 2 0 -2 -5 -7 -8 -8 -8 -8 -8 -8 -8 -8 -8 -8 -8 -8 -8 -8 -7 -7 -6 -6 -6 -6 -6 -6 -7 -6 -6 -6 -6 -6 -5 -5 -5 -5 -5 -5
4 4 4 3 2 1 -2 -4 -6 -8 -8 -9 -9 -9 -9 -9 -9 -9 -9 -9 -9 -9 -8 -8 -7 -7 -6 -6 -6 -6 -6 -6 -6 -6 -6 -5 -4 -3 -3 -4 -4 -4 -4
4 4 4 3 2 1 -1 -3 -6 -7 -8 -8 -9 -9 -9 -9 -9 -8 -9 -9 -9 -9 -8 -8 -7 -7 -6 -6 -6 -5 -5 -5 -5 -5 -5 -4 -3 -3 -3 -3 -3 -3 -3
4 4 3 3 1 0 -1 -3 -5 -6 -7 -8 -8 -8 -8 -8 -8 -8 -8 -9 -9 -8 -7 -7 -6 -6 -5 -5 -5 -5 -5 -4 -3 -3 -2 -2 -2 -2 -2 -2 -2 -2 -1
4 3 2 1 -0 -1 -2 -3 -3 -5 -6 -6 -7 -7 -6 -6 -7 -7 -7 -8 -8 -7 -6 -6 -5 -5 -4 -4 -4 -3 -3 -2 -1 -1 -1 -1 -2 -2 -2 -1 -1 0 0
3 2 1 -0 -1 -2 -2 -3 -3 -4 -5 -5 -6 -6 -5 -5 -6 -6 -5 -6 -6 -5 -5 -4 -4 -4 -3 -3 -2 -1 -1 0 0 0 0 -0 -0 -0 -0 0 1 2 3
2 1 0 -1 -1 -2 -2 -3 -3 -3 -3 -4 -5 -5 -5 -5 -4 -4 -4 -3 -3 -3 -3 -3 -2 -2 -1 -1 -0 1 2 3 3 2 2 2 2 3 3 3 4 5 5
2 1 1 -0 -1 -2 -3 -3 -3 -3 -3 -3 -4 -4 -4 -4 -4 -3 -2 -2 -2 -2 -2 -1 -1 0 1 1 2 3 4 5 4 4 4 5 5 5 5 5 6 7 7